{"data":{"norad_id":58518,"intl_designator":"2023-191L","name":"STARLINK-31021","alt_names":[],"object_type":"PAYLOAD","status":"ACTIVE","operator":null,"country":"US","launch_date":"2023-12-07","launch_site_code":"AFETR","launch_vehicle":null,"mission":null,"orbit_class":"UNKNOWN","rcs_meters":null,"size_class":null,"mass_kg":null,"dimensions":null,"purposes":["comms"],"wikipedia_slug":null,"has_3d_model":false,"image_url":null,"decayed_at":null,"tle_current":{"epoch":"2026-05-25T00:38:58.213824Z","epoch_age_seconds":73547,"freshness":"FRESH","line1":"1 58518U 23191L   26145.02706266  .00002218  00000+0  90088-4 0  9991","line2":"2 58518  43.0021  32.5127 0001563 266.5534  93.5139 15.27587961137142","mean_motion":15.27587961,"eccentricity":0.0001563,"inclination_deg":43.0021,"raan_deg":32.5127,"arg_perigee_deg":266.5534,"mean_anomaly_deg":93.5139,"bstar":9.0088e-5,"rev_number":13714,"period_min":94.266257444012,"perigee_km":481.95285838429,"apogee_km":484.09765770616,"semimajor_km":6861.1622580452,"source":"CELESTRAK","updated_at":"2026-05-25T13:38:18.657303Z"}}}